Weather History for KLKU - February, 2013

Change the Weather History Date:

Tuesday, February 26, 2013

  Actual Average (KCHO) Record (KCHO)
Temperature  
Mean Temperature 36 °F 40 °F  
Max Temperature 48 °F 52 °F 79 °F (1930)
Min Temperature 24 °F 29 °F 9 °F (1900)
Degree Days  
Heating Degree Days 29 25  
Month to date heating degree days 704  
Since 1 July heating degree days 3364  
Cooling Degree Days 0 0  
Month to date cooling degree days 0  
Year to date cooling degree days 0  
Moisture  
Dew Point 32 °F    
Average Humidity 85    
Maximum Humidity 100    
Minimum Humidity 70    
Precipitation  
Precipitation 1.00 in 0.11 in 1.64 in (1979)
Month to date precipitation 2.46  
Year to date precipitation 5.23  
Sea Level Pressure  
Sea Level Pressure 29.93 in    
Wind  
Wind Speed 3 mph (NE)    
Max Wind Speed 15 mph    
Max Gust Speed 21 mph    
Visibility 7 miles    
Events Rain    
T = Trace of Precipitation, MM = Missing Value Source: NWS Daily Summary

Daily Weather History Graph

Daily Weather History Graph

Search for Another Location

Airport or City:

Trip Planner

Search our weather history database for the weather conditions in past years. The results will help you decide how hot, cold, wet, or windy it might be!

Date:

Astronomy

Feb. 26, 2013 Rise Set
Actual Time 6:47 AM EST 6:02 PM EST
Civil Twilight 6:20 AM EST 6:29 PM EST
Nautical Twilight 5:50 AM EST 6:59 PM EST
Astronomical Twilight 5:19 AM EST 7:30 PM EST
Moon 7:14 PM EST (2/26) 6:50 AM EST (2/26)
Length of Visible Light 12h 08m
Length of Day
11h 15m
Full, 99% of the Moon is Illuminated
Feb 26
Full
Mar 4
Last Quarter
Mar 11
New
Mar 19
First Quarter
Mar 27
Full

Hourly Weather History & Observations

Time (EST) Temp. Windchill Dew Point Humidity Pressure Visibility Wind Dir Wind Speed Gust Speed Precip Events Conditions
12:15 AM 26.6 °F - 19.4 °F 74% 30.18 in 10.0 mi Calm Calm - N/A   Clear
12:35 AM 26.6 °F - 19.4 °F 74% 30.17 in 10.0 mi Calm Calm - N/A   Clear
12:55 AM 24.8 °F - 19.4 °F 80% 30.19 in 10.0 mi Calm Calm - N/A   Clear
1:15 AM 24.8 °F - 19.4 °F 80% 30.19 in 7.0 mi Calm Calm - N/A   Clear
1:35 AM 24.8 °F - 19.4 °F 80% 30.19 in 10.0 mi Calm Calm - N/A   Clear
1:55 AM 24.8 °F - 19.4 °F 80% 30.18 in 10.0 mi Calm Calm - N/A   Clear
2:15 AM 26.6 °F - 21.2 °F 80% 30.17 in 10.0 mi Calm Calm - N/A   Clear
2:35 AM 26.6 °F - 21.2 °F 80% 30.16 in 10.0 mi Calm Calm - N/A   Clear
2:55 AM 26.6 °F - 21.2 °F 80% 30.16 in 10.0 mi Calm Calm - N/A   Clear
3:15 AM 26.6 °F - 21.2 °F 80% 30.15 in 10.0 mi Calm Calm - N/A   Clear
3:35 AM 26.6 °F - 21.2 °F 80% 30.14 in 10.0 mi Calm Calm - N/A   Clear
3:55 AM 26.6 °F - 21.2 °F 80% 30.14 in 10.0 mi Calm Calm - N/A   Clear
4:15 AM 26.6 °F - 21.2 °F 80% 30.14 in 10.0 mi Calm Calm - N/A   Clear
4:35 AM 26.6 °F - 21.2 °F 80% 30.13 in 10.0 mi Calm Calm - N/A   Clear
4:55 AM 28.4 °F - 21.2 °F 74% 30.14 in 10.0 mi Calm Calm - N/A   Clear
5:15 AM 28.4 °F - 21.2 °F 74% 30.13 in 10.0 mi Calm Calm - N/A   Clear
5:35 AM 28.4 °F - 23.0 °F 80% 30.13 in 10.0 mi Calm Calm - N/A   Clear
5:55 AM 28.4 °F - 23.0 °F 80% 30.13 in 10.0 mi Calm Calm - N/A   Clear
6:15 AM 28.4 °F - 23.0 °F 80% 30.14 in 10.0 mi Calm Calm - N/A   Clear
6:35 AM 28.4 °F - 21.2 °F 74% 30.13 in 10.0 mi Calm Calm - N/A   Clear
6:55 AM 30.2 °F 26.7 °F 24.8 °F 80% 30.12 in 10.0 mi North 3.5 mph - N/A   Mostly Cloudy
7:15 AM 30.2 °F 26.7 °F 24.8 °F 80% 30.13 in 10.0 mi NNE 3.5 mph - N/A   Overcast
7:35 AM 32.0 °F 27.5 °F 24.8 °F 75% 30.11 in 10.0 mi NNE 4.6 mph - N/A   Overcast
7:55 AM 32.0 °F 27.5 °F 24.8 °F 75% 30.12 in 10.0 mi NE 4.6 mph - N/A   Overcast
8:15 AM 33.8 °F 30.8 °F 24.8 °F 70% 30.13 in 10.0 mi North 3.5 mph - N/A   Overcast
8:35 AM 33.8 °F 29.6 °F 24.8 °F 70% 30.13 in 10.0 mi NNE 4.6 mph - N/A   Overcast
8:55 AM 33.8 °F 30.8 °F 26.6 °F 75% 30.13 in 10.0 mi NE 3.5 mph - N/A   Overcast
9:15 AM 33.8 °F 27.7 °F 26.6 °F 75% 30.13 in 10.0 mi NE 6.9 mph - N/A   Overcast
9:35 AM 35.6 °F 31.7 °F 26.6 °F 70% 30.12 in 10.0 mi NE 4.6 mph - N/A   Overcast
9:55 AM 35.6 °F 30.7 °F 26.6 °F 70% 30.10 in 10.0 mi NE 5.8 mph - N/A   Drizzle
10:15 AM 35.6 °F 29.9 °F 28.4 °F 75% 30.09 in 10.0 mi NE 6.9 mph - N/A   Drizzle
10:35 AM 35.6 °F 30.7 °F 30.2 °F 81% 30.07 in 10.0 mi NNE 5.8 mph - N/A   Light Drizzle
10:55 AM 35.6 °F 29.9 °F 30.2 °F 81% 30.07 in 10.0 mi NE 6.9 mph - N/A   Light Drizzle
11:15 AM 37.4 °F 32.1 °F 30.2 °F 75% 30.07 in 10.0 mi NE 6.9 mph - N/A Rain Light Rain
11:35 AM 37.4 °F 31.4 °F 33.8 °F 87% 30.05 in 5.0 mi NE 8.1 mph - N/A Rain Light Rain
11:55 AM 37.4 °F 30.8 °F 33.8 °F 87% 30.03 in 7.0 mi NE 9.2 mph - 0.01 in   Drizzle
12:15 PM 37.4 °F 31.4 °F 35.6 °F 93% 30.02 in 5.0 mi NNE 8.1 mph - 0.01 in Rain Light Rain
12:35 PM 37.4 °F 31.4 °F 35.6 °F 93% 30.00 in 5.0 mi NE 8.1 mph - 0.02 in Rain Light Rain
12:55 PM 37.4 °F 31.4 °F 35.6 °F 93% 29.98 in 4.0 mi NE 8.1 mph - 0.05 in Rain Light Rain
1:15 PM 37.4 °F 29.8 °F 35.6 °F 93% 29.96 in 3.0 mi ENE 11.5 mph 17.3 mph 0.03 in Rain Light Rain
1:35 PM 37.4 °F 30.3 °F 35.6 °F 93% 29.93 in 2.0 mi ENE 10.4 mph 17.3 mph 0.05 in Rain Light Rain
1:55 PM 37.4 °F 30.3 °F 35.6 °F 93% 29.90 in 2.0 mi NE 10.4 mph 18.4 mph 0.08 in Rain Light Rain
2:15 PM 37.4 °F 28.5 °F 35.6 °F 93% 29.88 in 3.0 mi ENE 15.0 mph 19.6 mph 0.02 in Rain Light Rain
2:35 PM 39.2 °F 32.0 °F 37.4 °F 93% 29.86 in 2.5 mi ENE 11.5 mph 20.7 mph 0.05 in Rain Light Rain
2:55 PM 39.2 °F 31.6 °F 37.4 °F 93% 29.84 in 2.5 mi ENE 12.7 mph 18.4 mph 0.07 in Rain Light Rain
3:15 PM 39.2 °F 33.6 °F 37.4 °F 93% 29.83 in 2.0 mi NE 8.1 mph - 0.04 in Rain Heavy Rain
3:35 PM 41.0 °F 35.8 °F 39.2 °F 93% 29.80 in 5.0 mi ENE 8.1 mph - 0.09 in Rain Light Rain
3:55 PM 42.8 °F 38.0 °F 39.2 °F 87% 29.78 in 7.0 mi East 8.1 mph 16.1 mph 0.12 in Rain Light Rain
4:15 PM 42.8 °F 37.5 °F 41.0 °F 93% 29.76 in 7.0 mi ENE 9.2 mph - 0.02 in Rain Light Rain
4:35 PM 44.6 °F 40.2 °F 41.0 °F 87% 29.74 in 7.0 mi East 8.1 mph - 0.03 in   Drizzle
4:55 PM 44.6 °F 39.7 °F 42.8 °F 93% 29.70 in 7.0 mi ENE 9.2 mph - 0.08 in Rain Light Rain
5:15 PM 44.6 °F 39.2 °F 42.8 °F 93% 29.67 in 5.0 mi ENE 10.4 mph 20.7 mph 0.04 in Rain Rain
5:35 PM 44.6 °F 39.7 °F 42.8 °F 93% 29.67 in 4.0 mi East 9.2 mph 17.3 mph 0.07 in Rain Light Rain
5:55 PM 46.4 °F 41.9 °F 42.8 °F 87% 29.66 in 7.0 mi ENE 9.2 mph - 0.13 in Rain Light Rain
6:15 PM 46.4 °F 42.4 °F 44.6 °F 93% 29.66 in 10.0 mi East 8.1 mph - 0.07 in Rain Heavy Rain
6:35 PM 46.4 °F 43.5 °F 44.6 °F 93% 29.65 in 7.0 mi ENE 5.8 mph - 0.11 in Rain Rain
6:55 PM 46.4 °F 43.5 °F 44.6 °F 93% 29.65 in 4.0 mi East 5.8 mph - 0.21 in Rain Rain
7:15 PM 48.2 °F - 44.6 °F 87% 29.67 in 2.5 mi Calm Calm - 0.11 in Rain Rain
7:35 PM 48.2 °F - 44.6 °F 87% 29.66 in 10.0 mi NNE 4.6 mph - 0.16 in Rain Rain
7:55 PM 46.4 °F 43.5 °F 44.6 °F 93% 29.66 in 7.0 mi North 5.8 mph - 0.17 in   Drizzle
8:15 PM 46.4 °F 42.9 °F 44.6 °F 93% 29.64 in 7.0 mi North 6.9 mph - 0.02 in Rain Rain
8:35 PM 46.4 °F 41.9 °F 44.6 °F 93% 29.63 in 7.0 mi North 9.2 mph - 0.04 in   Drizzle
8:55 PM 44.6 °F 40.7 °F 42.8 °F 93% 29.64 in 7.0 mi NNW 6.9 mph - 0.06 in Rain Rain
9:15 PM 44.6 °F 40.7 °F 42.8 °F 93% 29.62 in 4.0 mi NNE 6.9 mph - 0.01 in   Heavy Drizzle
9:35 PM 44.6 °F 40.7 °F 42.8 °F 93% 29.62 in 5.0 mi North 6.9 mph - 0.01 in   Overcast
9:55 PM 44.6 °F 41.4 °F 42.8 °F 93% 29.61 in 7.0 mi North 5.8 mph - 0.02 in   Overcast
10:15 PM 44.6 °F 40.2 °F 42.8 °F 93% 29.60 in 5.0 mi NNE 8.1 mph - N/A   Overcast
10:35 PM 44.6 °F 40.7 °F 42.8 °F 93% 29.59 in 3.0 mi NNE 6.9 mph - N/A   Overcast
10:55 PM 44.6 °F 40.7 °F 42.8 °F 93% 29.60 in 4.0 mi North 6.9 mph - N/A   Overcast
11:15 PM 44.6 °F 43.1 °F 42.8 °F 93% 29.60 in 3.0 mi NW 3.5 mph - N/A   Drizzle
11:35 PM 44.6 °F 41.4 °F 42.8 °F 93% 29.58 in 4.0 mi North 5.8 mph - N/A   Overcast
11:55 PM 42.8 °F 38.0 °F 42.8 °F 100% 29.56 in 4.0 mi NNW 8.1 mph - N/A   Overcast